| time (UTC) | temp F | wind direction | speed MPH | gust MPH | rain 1hr in | rain 24hr in | rain mn in | humidity % | barometer mb |
| 20260504184541 | 74 | 111 | 5.0 | 13.0 | 0.00 | 0.00 | 0.00 | 32 | 1009.4 |
| 20260504184022 | 73 | 204 | 5.0 | 16.0 | 0.00 | 0.00 | 0.00 | 33 | 1009.4 |
| 20260504183522 | 73 | 217 | 8.0 | 16.0 | 0.00 | 0.00 | 0.00 | 33 | 1009.6 |
| 20260504183038 | 74 | 219 | 2.0 | 16.0 | 0.00 | 0.00 | 0.00 | 33 | 1009.6 |
| 20260504182521 | 74 | 206 | 2.0 | 16.0 | 0.00 | 0.00 | 0.00 | 32 | 1009.8 |
| 20260504182023 | 74 | 234 | 6.0 | 15.0 | 0.00 | 0.00 | 0.00 | 32 | 1009.9 |
| 20260504181538 | 73 | 250 | 4.0 | 14.0 | 0.00 | 0.00 | 0.00 | 33 | 1010.0 |
| 20260504181021 | 73 | 194 | 5.0 | 18.0 | 0.00 | 0.00 | 0.00 | 33 | 1010.1 |
| 20260504180523 | 73 | 197 | 7.0 | 18.0 | 0.00 | 0.00 | 0.00 | 33 | 1010.2 |
| 20260504180047 | 73 | 180 | 7.0 | 14.0 | 0.00 | 0.00 | 0.00 | 33 | 1010.3 |
| 20260504175521 | 73 | 223 | 6.0 | 13.0 | 0.00 | 0.00 | 0.00 | 33 | 1010.2 |
| 20260504175022 | 73 | 250 | 5.0 | 13.0 | 0.00 | 0.00 | 0.00 | 33 | 1010.3 |
| 20260504174541 | 72 | 290 | 7.0 | 13.0 | 0.00 | 0.00 | 0.00 | 33 | 1010.4 |
| 20260504174022 | 72 | 219 | 4.0 | 17.0 | 0.00 | 0.00 | 0.00 | 33 | 1010.3 |
| 20260504173520 | 72 | 217 | 7.0 | 17.0 | 0.00 | 0.00 | 0.00 | 33 | 1010.5 |
| 20260504173040 | 72 | 213 | 3.0 | 15.0 | 0.00 | 0.00 | 0.00 | 34 | 1010.4 |
| 20260504172520 | 72 | 236 | 6.0 | 15.0 | 0.00 | 0.00 | 0.00 | 34 | 1010.5 |
| 20260504172020 | 72 | 323 | 4.0 | 13.0 | 0.00 | 0.00 | 0.00 | 34 | 1010.6 |
| 20260504171547 | 71 | 250 | 4.0 | 15.0 | 0.00 | 0.00 | 0.00 | 34 | 1010.7 |
| 20260504171022 | 71 | 232 | 6.0 | 18.0 | 0.00 | 0.00 | 0.00 | 34 | 1010.8 |
| 20260504170521 | 71 | 0 | 5.0 | 18.0 | 0.00 | 0.00 | 0.00 | 35 | 1010.8 |
| 20260504151021 | 68 | 259 | 4.0 | 15.0 | 0.00 | 0.00 | 0.00 | 36 | 1012.3 |
| 20260504150522 | 67 | 244 | 6.0 | 15.0 | 0.00 | 0.00 | 0.00 | 36 | 1012.3 |
| 20260504141024 | 64 | 244 | 6.0 | 11.0 | 0.00 | 0.00 | 0.00 | 44 | 1012.3 |
| 20260504140521 | 64 | 232 | 4.0 | 14.0 | 0.00 | 0.00 | 0.00 | 45 | 1012.3 |
| 20260504130521 | 58 | 244 | 4.0 | 11.0 | 0.00 | 0.00 | 0.00 | 59 | 1013.2 |
| 20260504110521 | 42 | 0 | 0.0 | 0.0 | 0.00 | 0.00 | 0.00 | 79 | 1013.8 |
| 20260504100520 | 40 | 0 | 0.0 | 0.0 | 0.00 | 0.00 | 0.00 | 77 | 1013.6 |
| 20260504081542 | 42 | 0 | 0.0 | 0.0 | 0.00 | 0.00 | 0.00 | 72 | 1013.3 |
| 20260504081021 | 42 | 0 | 0.0 | 0.0 | 0.00 | 0.00 | 0.00 | 72 | 1013.2 |
| 20260504080521 | 42 | 0 | 0.0 | 0.0 | 0.00 | 0.00 | 0.00 | 71 | 1013.2 |
| 20260504050521 | 46 | 0 | 0.0 | 0.0 | 0.00 | 0.00 | 0.00 | 65 | 1012.9 |
| 20260504045521 | 46 | 0 | 0.0 | 0.0 | 0.00 | 0.00 | 0.00 | 65 | 1012.8 |
| 20260504045020 | 46 | 0 | 0.0 | 2.0 | 0.00 | 0.00 | 0.00 | 64 | 1012.8 |
| 20260504044536 | 46 | 0 | 0.0 | 2.0 | 0.00 | 0.00 | 0.00 | 64 | 1012.8 |
| 20260504044019 | 46 | 0 | 0.0 | 2.0 | 0.00 | 0.00 | 0.00 | 64 | 1012.8 |
| 20260504043521 | 47 | 360 | 0.0 | 1.0 | 0.00 | 0.00 | 0.00 | 63 | 1012.8 |
| 20260504043046 | 47 | 0 | 0.0 | 1.0 | 0.00 | 0.00 | 0.00 | 63 | 1012.7 |
| 20260504042521 | 47 | 360 | 0.0 | 1.0 | 0.00 | 0.00 | 0.00 | 63 | 1012.8 |
| 20260504042022 | 47 | 0 | 0.0 | 0.0 | 0.00 | 0.00 | 0.00 | 62 | 1012.7 |
| 20260504041538 | 47 | 0 | 0.0 | 0.0 | 0.00 | 0.00 | 0.00 | 61 | 1012.6 |
| 20260504041020 | 47 | 0 | 0.0 | 1.0 | 0.00 | 0.00 | 0.00 | 61 | 1012.5 |
| 20260504040521 | 48 | 0 | 0.0 | 1.0 | 0.00 | 0.00 | 0.00 | 61 | 1012.5 |
| 20260504040045 | 48 | 0 | 0.0 | 1.0 | 0.00 | 0.00 | 0.00 | 60 | 1012.6 |
| 20260504035522 | 48 | 0 | 0.0 | 1.0 | 0.00 | 0.00 | 0.00 | 60 | 1012.4 |
| 20260504035020 | 48 | 0 | 0.0 | 1.0 | 0.00 | 0.00 | 0.00 | 59 | 1012.3 |
| 20260504034538 | 49 | 0 | 0.0 | 1.0 | 0.00 | 0.00 | 0.00 | 58 | 1012.4 |
| 20260504034020 | 49 | 0 | 0.0 | 2.0 | 0.00 | 0.00 | 0.00 | 58 | 1012.3 |
| 20260504033520 | 49 | 360 | 0.0 | 2.0 | 0.00 | 0.00 | 0.00 | 57 | 1012.3 |
| 20260504033038 | 49 | 0 | 0.0 | 1.0 | 0.00 | 0.00 | 0.00 | 56 | 1012.3 |
| 20260504032521 | 50 | 0 | 0.0 | 1.0 | 0.00 | 0.00 | 0.00 | 55 | 1012.3 |
| 20260504032022 | 50 | 0 | 0.0 | 1.0 | 0.00 | 0.00 | 0.00 | 54 | 1012.3 |
| 20260504031540 | 50 | 0 | 0.0 | 0.0 | 0.00 | 0.00 | 0.00 | 53 | 1012.3 |
| 20260504031021 | 51 | 0 | 0.0 | 0.0 | 0.00 | 0.00 | 0.00 | 53 | 1012.2 |
| 20260504030521 | 51 | 0 | 0.0 | 1.0 | 0.00 | 0.00 | 0.00 | 52 | 1012.1 |
| 20260504030036 | 51 | 0 | 0.0 | 2.0 | 0.00 | 0.00 | 0.00 | 52 | 1012.2 |
| 20260504025521 | 51 | 0 | 0.0 | 2.0 | 0.00 | 0.00 | 0.00 | 50 | 1012.2 |
| 20260504025020 | 51 | 360 | 0.0 | 2.0 | 0.00 | 0.00 | 0.00 | 50 | 1012.2 |
| 20260504024544 | 51 | 360 | 0.0 | 2.0 | 0.00 | 0.00 | 0.00 | 50 | 1012.2 |
| 20260504024021 | 52 | 360 | 0.0 | 3.0 | 0.00 | 0.00 | 0.00 | 49 | 1012.2 |
| 20260504023520 | 52 | 0 | 0.0 | 3.0 | 0.00 | 0.00 | 0.00 | 49 | 1012.2 |
| 20260504023041 | 52 | 360 | 1.0 | 3.0 | 0.00 | 0.00 | 0.00 | 48 | 1012.2 |
| 20260504022521 | 52 | 360 | 0.0 | 2.0 | 0.00 | 0.00 | 0.00 | 47 | 1012.2 |
| 20260504022020 | 52 | 0 | 0.0 | 3.0 | 0.00 | 0.00 | 0.00 | 47 | 1012.2 |
| 20260504021539 | 53 | 0 | 0.0 | 3.0 | 0.00 | 0.00 | 0.00 | 47 | 1012.2 |
| 20260504021020 | 53 | 0 | 0.0 | 3.0 | 0.00 | 0.00 | 0.00 | 46 | 1012.1 |
| 20260504020520 | 53 | 360 | 0.0 | 3.0 | 0.00 | 0.00 | 0.00 | 46 | 1012.1 |
| 20260504020037 | 53 | 360 | 0.0 | 2.0 | 0.00 | 0.00 | 0.00 | 45 | 1012.1 |
| 20260504015520 | 54 | 0 | 0.0 | 0.0 | 0.00 | 0.00 | 0.00 | 44 | 1012.2 |
| 20260504015024 | 54 | 0 | 0.0 | 0.0 | 0.00 | 0.00 | 0.00 | 44 | 1012.1 |
| 20260504014540 | 54 | 0 | 0.0 | 1.0 | 0.00 | 0.00 | 0.00 | 44 | 1012.0 |
| 20260504014020 | 54 | 0 | 0.0 | 1.0 | 0.00 | 0.00 | 0.00 | 43 | 1012.0 |
| 20260504013520 | 55 | 0 | 0.0 | 2.0 | 0.00 | 0.00 | 0.00 | 42 | 1012.0 |
| 20260504013049 | 55 | 0 | 0.0 | 2.0 | 0.00 | 0.00 | 0.00 | 42 | 1011.9 |
| 20260504012524 | 55 | 360 | 0.0 | 1.0 | 0.00 | 0.00 | 0.00 | 41 | 1011.8 |
| 20260504012020 | 55 | 0 | 0.0 | 1.0 | 0.00 | 0.00 | 0.00 | 40 | 1011.7 |
| 20260504011540 | 56 | 0 | 0.0 | 1.0 | 0.00 | 0.00 | 0.00 | 40 | 1011.6 |
| 20260504011019 | 56 | 0 | 0.0 | 1.0 | 0.00 | 0.00 | 0.00 | 39 | 1011.6 |
| 20260504010519 | 57 | 0 | 0.0 | 1.0 | 0.00 | 0.00 | 0.00 | 39 | 1011.5 |
| 20260504010046 | 57 | 0 | 0.0 | 1.0 | 0.00 | 0.00 | 0.00 | 38 | 1011.4 |
| 20260504005521 | 57 | 0 | 0.0 | 1.0 | 0.00 | 0.00 | 0.00 | 37 | 1011.4 |
| 20260504005023 | 57 | 0 | 0.0 | 1.0 | 0.00 | 0.00 | 0.00 | 37 | 1011.3 |
| 20260504004541 | 58 | 0 | 0.0 | 1.0 | 0.00 | 0.00 | 0.00 | 37 | 1011.3 |
| 20260504004020 | 58 | 0 | 0.0 | 1.0 | 0.00 | 0.00 | 0.00 | 36 | 1011.2 |
| 20260504003520 | 58 | 0 | 0.0 | 1.0 | 0.00 | 0.00 | 0.00 | 36 | 1011.2 |
| 20260504003038 | 58 | 0 | 0.0 | 3.0 | 0.00 | 0.00 | 0.00 | 35 | 1011.1 |
| 20260504002520 | 59 | 0 | 0.0 | 3.0 | 0.00 | 0.00 | 0.00 | 35 | 1011.1 |
| 20260504002020 | 59 | 0 | 1.0 | 5.0 | 0.00 | 0.00 | 0.00 | 34 | 1010.9 |
| 20260504001540 | 59 | 360 | 1.0 | 5.0 | 0.00 | 0.00 | 0.00 | 34 | 1010.8 |
| 20260504001020 | 59 | 360 | 1.0 | 5.0 | 0.00 | 0.00 | 0.00 | 34 | 1010.7 |
| 20260504000520 | 59 | 360 | 2.0 | 6.0 | 0.00 | 0.00 | 0.00 | 33 | 1010.6 |
| 20260504000042 | 60 | 360 | 3.0 | 8.0 | 0.00 | 0.00 | 0.00 | 33 | 1010.4 |
| 20260503235520 | 60 | 360 | 3.0 | 8.0 | 0.00 | 0.00 | 0.00 | 32 | 1010.5 |
| 20260503235019 | 60 | 360 | 4.0 | 13.0 | 0.00 | 0.00 | 0.00 | 32 | 1010.4 |
| 20260503234543 | 60 | 360 | 3.0 | 13.0 | 0.00 | 0.00 | 0.00 | 32 | 1010.4 |
| 20260503234021 | 60 | 360 | 5.0 | 13.0 | 0.00 | 0.00 | 0.00 | 31 | 1010.4 |
| 20260503233521 | 61 | 360 | 6.0 | 15.0 | 0.00 | 0.00 | 0.00 | 31 | 1010.4 |
| 20260503233042 | 61 | 211 | 5.0 | 15.0 | 0.00 | 0.00 | 0.00 | 31 | 1010.4 |
| 20260503232523 | 61 | 242 | 6.0 | 15.0 | 0.00 | 0.00 | 0.00 | 30 | 1010.2 |
| 20260503232022 | 61 | 248 | 5.0 | 13.0 | 0.00 | 0.00 | 0.00 | 30 | 1010.2 |
| 20260503231541 | 61 | 260 | 6.0 | 13.0 | 0.00 | 0.00 | 0.00 | 30 | 1010.2 |
| 20260503231023 | 61 | 278 | 3.0 | 16.0 | 0.00 | 0.00 | 0.00 | 30 | 1010.2 |
| 20260503230526 | 61 | 235 | 8.0 | 16.0 | 0.00 | 0.00 | 0.00 | 29 | 1010.2 |
| 20260503230038 | 62 | 225 | 6.0 | 12.0 | 0.00 | 0.00 | 0.00 | 29 | 1010.1 |
| 20260503225522 | 62 | 360 | 5.0 | 12.0 | 0.00 | 0.00 | 0.00 | 29 | 1010.1 |
| 20260503225022 | 61 | 360 | 5.0 | 13.0 | 0.00 | 0.00 | 0.00 | 29 | 1010.0 |
| 20260503224537 | 61 | 360 | 7.0 | 16.0 | 0.00 | 0.00 | 0.00 | 29 | 1010.0 |
| 20260503224022 | 61 | 360 | 9.0 | 16.0 | 0.00 | 0.00 | 0.00 | 29 | 1010.1 |
| 20260503223522 | 61 | 360 | 7.0 | 16.0 | 0.00 | 0.00 | 0.00 | 29 | 1010.1 |
| 20260503223037 | 61 | 360 | 6.0 | 18.0 | 0.00 | 0.00 | 0.00 | 29 | 1010.0 |
| 20260503222522 | 61 | 219 | 6.0 | 18.0 | 0.00 | 0.00 | 0.00 | 29 | 1010.1 |
| 20260503222022 | 62 | 252 | 5.0 | 13.0 | 0.00 | 0.00 | 0.00 | 29 | 1010.0 |
| 20260503221543 | 62 | 210 | 5.0 | 16.0 | 0.00 | 0.00 | 0.00 | 29 | 1010.0 |
| 20260503221022 | 62 | 224 | 7.0 | 16.0 | 0.00 | 0.00 | 0.00 | 28 | 1009.9 |
| 20260503220522 | 62 | 222 | 5.0 | 11.0 | 0.00 | 0.00 | 0.00 | 28 | 1010.0 |
| 20260503220041 | 62 | 255 | 5.0 | 17.0 | 0.00 | 0.00 | 0.00 | 29 | 1010.0 |
| 20260503215521 | 61 | 210 | 5.0 | 17.0 | 0.00 | 0.00 | 0.00 | 28 | 1010.0 |
| 20260503215021 | 62 | 250 | 9.0 | 17.0 | 0.00 | 0.00 | 0.00 | 28 | 1010.1 |
| 20260503214541 | 62 | 267 | 7.0 | 14.0 | 0.00 | 0.00 | 0.00 | 28 | 1010.1 |
| 20260503214022 | 61 | 222 | 6.0 | 15.0 | 0.00 | 0.00 | 0.00 | 29 | 1009.9 |
| 20260503213522 | 61 | 238 | 6.0 | 18.0 | 0.00 | 0.00 | 0.00 | 28 | 1010.1 |
| 20260503213037 | 61 | 296 | 7.0 | 18.0 | 0.00 | 0.00 | 0.00 | 29 | 1010.1 |
| 20260503212523 | 61 | 242 | 9.0 | 18.0 | 0.00 | 0.00 | 0.00 | 28 | 1010.0 |
| 20260503212023 | 61 | 230 | 10.0 | 17.0 | 0.00 | 0.00 | 0.00 | 29 | 1010.1 |
| 20260503211538 | 61 | 249 | 10.0 | 20.0 | 0.00 | 0.00 | 0.00 | 28 | 1010.0 |
| 20260503211022 | 61 | 293 | 8.0 | 20.0 | 0.00 | 0.00 | 0.00 | 28 | 1010.1 |
| 20260503210522 | 61 | 283 | 9.0 | 19.0 | 0.00 | 0.00 | 0.00 | 28 | 1010.1 |
| 20260503210043 | 61 | 259 | 7.0 | 15.0 | 0.00 | 0.00 | 0.00 | 29 | 1010.1 |
| 20260503205524 | 61 | 281 | 8.0 | 16.0 | 0.00 | 0.00 | 0.00 | 29 | 1010.0 |
| 20260503205022 | 61 | 248 | 8.0 | 19.0 | 0.00 | 0.00 | 0.00 | 29 | 1010.1 |
| 20260503204543 | 61 | 231 | 10.0 | 19.0 | 0.00 | 0.00 | 0.00 | 29 | 1010.1 |
| 20260503204022 | 61 | 261 | 5.0 | 18.0 | 0.00 | 0.00 | 0.00 | 29 | 1010.1 |
| 20260503203522 | 60 | 360 | 8.0 | 18.0 | 0.00 | 0.00 | 0.00 | 29 | 1010.1 |
| 20260503203049 | 60 | 360 | 9.0 | 18.0 | 0.00 | 0.00 | 0.00 | 30 | 1010.1 |
| 20260503202522 | 60 | 360 | 9.0 | 20.0 | 0.00 | 0.00 | 0.00 | 29 | 1010.1 |
| 20260503202021 | 60 | 360 | 10.0 | 20.0 | 0.00 | 0.00 | 0.00 | 29 | 1010.2 |
| 20260503201543 | 60 | 274 | 8.0 | 18.0 | 0.00 | 0.00 | 0.00 | 29 | 1010.1 |
| 20260503201059 | 60 | 249 | 9.0 | 19.0 | 0.00 | 0.00 | 0.00 | 28 | 1010.3 |
| 20260503200521 | 60 | 292 | 5.0 | 19.0 | 0.00 | 0.00 | 0.00 | 29 | 1010.3 |
| 20260503200038 | 60 | 274 | 9.0 | 19.0 | 0.00 | 0.00 | 0.00 | 28 | 1010.3 |
| 20260503195525 | 60 | 321 | 5.0 | 15.0 | 0.00 | 0.00 | 0.00 | 30 | 1010.2 |
| 20260503195021 | 60 | 228 | 7.0 | 16.0 | 0.00 | 0.00 | 0.00 | 30 | 1010.3 |
| 20260503194538 | 59 | 360 | 6.0 | 17.0 | 0.00 | 0.00 | 0.00 | 30 | 1010.4 |
| 20260503194022 | 60 | 360 | 5.0 | 17.0 | 0.00 | 0.00 | 0.00 | 30 | 1010.5 |
| 20260503193522 | 59 | 360 | 6.0 | 13.0 | 0.00 | 0.00 | 0.00 | 31 | 1010.5 |
| 20260503193046 | 59 | 271 | 4.0 | 16.0 | 0.00 | 0.00 | 0.00 | 30 | 1010.5 |
| 20260503192523 | 59 | 360 | 6.0 | 16.0 | 0.00 | 0.00 | 0.00 | 30 | 1010.5 |
| 20260503192022 | 59 | 218 | 10.0 | 16.0 | 0.00 | 0.00 | 0.00 | 29 | 1010.6 |
| 20260503191542 | 60 | 264 | 9.0 | 19.0 | 0.00 | 0.00 | 0.00 | 29 | 1010.8 |
| 20260503191022 | 60 | 280 | 9.0 | 19.0 | 0.00 | 0.00 | 0.00 | 30 | 1010.6 |
| 20260503190522 | 60 | 240 | 10.0 | 24.0 | 0.00 | 0.00 | 0.00 | 30 | 1010.6 |
| 20260503190045 | 59 | 229 | 9.0 | 24.0 | 0.00 | 0.00 | 0.00 | 30 | 1010.6 |
| 20260503185522 | 60 | 219 | 10.0 | 20.0 | 0.00 | 0.00 | 0.00 | 30 | 1010.6 |
| 20260503185022 | 59 | 274 | 9.0 | 21.0 | 0.00 | 0.00 | 0.00 | 30 | 1010.7 |